Weather History for KPEO - January, 2014

Change the Weather History Date:

Thursday, January 2, 2014

  Actual Average (KITH) Record (KITH)
Temperature  
Mean Temperature 10 °F -  
Max Temperature 14 °F 32 °F 59 °F (1952)
Min Temperature 5 °F 15 °F -47 °F (2003)
Degree Days  
Heating Degree Days 56    
Moisture  
Dew Point 6 °F    
Average Humidity 83    
Maximum Humidity 88    
Minimum Humidity 78    
Precipitation  
Precipitation 0.05 in - - ()
Sea Level Pressure  
Sea Level Pressure 30.05 in    
Wind  
Wind Speed 6 mph (North)    
Max Wind Speed 12 mph    
Max Gust Speed 20 mph    
Visibility 2 miles    
Events Fog , Snow    
Averages and records for this station are not official NWS values.
T = Trace of Precipitation, MM = Missing Value Source: NWS Daily Summary

Daily Weather History Graph

Daily Weather History Graph

Search for Another Location

Airport or City:

Trip Planner

Search our weather history database for the weather conditions in past years. The results will help you decide how hot, cold, wet, or windy it might be!

Date:

Astronomy

Jan. 02, 2014 Rise Set
Actual Time 7:38 AM EST 4:46 PM EST
Civil Twilight 7:06 AM EST 5:18 PM EST
Nautical Twilight 6:31 AM EST 5:53 PM EST
Astronomical Twilight 5:56 AM EST 6:28 PM EST
Moon 8:15 AM EST (1/2) 6:43 PM EST (1/2)
Length of Visible Light 10h 11m
Length of Day
9h 07m
New Moon, 2% of the Moon is Illuminated
Jan 2
New Moon
Jan 7
First Quarter
Jan 15
Full
Jan 24
Last Quarter
Jan 30
New

Hourly Weather History & Observations

Time (EST) Temp. Windchill Dew Point Humidity Pressure Visibility Wind Dir Wind Speed Gust Speed Precip Events Conditions
12:53 AM 14.0 °F 6.5 °F 10.9 °F 88% 30.28 in 7.0 mi Variable 4.6 mph - 0.00 in   Overcast
1:07 AM 14.0 °F 8.2 °F 10.0 °F 84% 30.22 in 5.0 mi Variable 3.5 mph - 0.00 in Snow Light Snow
1:24 AM 14.0 °F 5.1 °F 10.0 °F 84% 30.22 in 2.0 mi NNE 5.8 mph - 0.00 in Snow Light Snow
1:32 AM 14.0 °F 5.1 °F 10.0 °F 84% 30.22 in 1.2 mi Variable 5.8 mph - 0.00 in Snow Light Snow
1:53 AM 12.9 °F 5.2 °F 10.0 °F 88% 30.27 in 1.8 mi NNE 4.6 mph - 0.00 in Snow Light Snow
2:04 AM 12.9 °F 2.6 °F 9.0 °F 84% 30.21 in 1.5 mi NNE 6.9 mph - 0.01 in Snow Light Snow
2:20 AM 12.9 °F 5.2 °F 9.0 °F 84% 30.21 in 2.0 mi NNE 4.6 mph - 0.01 in Snow Light Snow
2:46 AM 12.9 °F 3.8 °F 9.0 °F 84% 30.21 in 1.8 mi Variable 5.8 mph - 0.01 in Snow Light Snow
2:53 AM 12.0 °F 0.5 °F 8.1 °F 84% 30.27 in 1.2 mi NNE 8.1 mph - 0.01 in Snow Light Snow
3:03 AM 12.0 °F 1.5 °F 8.1 °F 84% 30.21 in 1.2 mi NNE 6.9 mph - 0.00 in Snow Light Snow
3:23 AM 12.0 °F - 8.1 °F 84% 30.19 in 2.5 mi Calm Calm - 0.00 in Snow Light Snow
3:37 AM 12.0 °F 5.9 °F 8.1 °F 84% 30.19 in 1.8 mi Variable 3.5 mph - 0.00 in Snow Light Snow
3:45 AM 12.0 °F 1.5 °F 8.1 °F 84% 30.18 in 1.5 mi NNE 6.9 mph - 0.00 in Snow Light Snow
3:53 AM 12.0 °F 4.1 °F 8.1 °F 84% 30.24 in 1.8 mi Variable 4.6 mph - 0.00 in Snow Light Snow
4:15 AM 12.0 °F 1.5 °F 8.1 °F 84% 30.17 in 2.5 mi North 6.9 mph - 0.00 in Snow Light Snow
4:25 AM 12.0 °F 4.1 °F 8.1 °F 84% 30.16 in 1.8 mi Variable 4.6 mph - 0.01 in Snow Light Snow
4:53 AM 12.0 °F 5.9 °F 8.1 °F 84% 30.22 in 1.5 mi North 3.5 mph - 0.01 in Snow Light Snow
5:35 AM 10.9 °F 1.4 °F 7.0 °F 84% 30.15 in 1.5 mi North 5.8 mph - 0.01 in Snow Light Snow
5:53 AM 10.9 °F 2.9 °F 6.1 °F 81% 30.22 in 1.2 mi Variable 4.6 mph - 0.01 in Snow Light Snow
6:41 AM 10.0 °F 0.4 °F 7.0 °F 87% 30.14 in 1.2 mi North 5.8 mph - 0.02 in Snow Light Snow
6:53 AM 10.9 °F 1.4 °F 7.0 °F 84% 30.21 in 1.2 mi North 5.8 mph - 0.02 in Snow Light Snow
7:53 AM 10.0 °F 1.8 °F 6.1 °F 84% 30.18 in 2.0 mi Variable 4.6 mph - 0.00 in Snow Light Snow
8:05 AM 10.0 °F 0.4 °F 6.1 °F 84% 30.11 in 1.2 mi North 5.8 mph - 0.00 in Snow Light Snow
8:24 AM 10.0 °F 0.4 °F 6.1 °F 84% 30.11 in 1.2 mi Variable 5.8 mph - 0.00 in Snow Light Snow
8:49 AM 10.4 °F -0.4 °F 6.8 °F 85% 30.10 in 1.2 mi North 6.9 mph - 0.00 in Snow Light Snow
8:53 AM 10.0 °F 0.4 °F 6.1 °F 84% 30.17 in 1.0 mi North 5.8 mph - 0.00 in Snow Light Snow
9:09 AM 10.9 °F 2.9 °F 7.0 °F 84% 30.10 in 0.8 mi North 4.6 mph - 0.00 in Snow Light Snow
9:53 AM 10.9 °F 2.9 °F 7.0 °F 84% 30.15 in 0.8 mi North 4.6 mph - 0.00 in Snow Light Snow
10:31 AM 10.9 °F 0.2 °F 7.0 °F 84% 30.08 in 0.5 mi North 6.9 mph - 0.00 in Fog , Snow Snow
10:50 AM 10.4 °F 0.8 °F 6.8 °F 85% 30.06 in 0.8 mi North 5.8 mph - 0.00 in Snow Light Snow
10:53 AM 10.9 °F 1.4 °F 7.0 °F 84% 30.12 in 0.8 mi Variable 5.8 mph - 0.00 in Snow Light Snow
11:53 AM 10.9 °F 1.4 °F 6.1 °F 81% 30.07 in 0.5 mi North 5.8 mph - 0.00 in Snow Snow
12:53 PM 10.9 °F 1.4 °F 7.0 °F 84% 30.02 in 0.5 mi North 5.8 mph - 0.00 in Fog , Snow Snow
1:53 PM 10.9 °F -0.8 °F 7.0 °F 84% 29.98 in 0.8 mi North 8.1 mph - 0.00 in Snow Light Snow
2:05 PM 10.9 °F 1.4 °F 6.1 °F 81% 29.91 in 1.0 mi North 5.8 mph - 0.00 in Snow Light Snow
2:15 PM 10.9 °F -0.8 °F 6.1 °F 81% 29.92 in 1.0 mi North 8.1 mph - 0.00 in Snow Light Snow
2:31 PM 10.9 °F 1.4 °F 6.1 °F 81% 29.93 in 0.8 mi North 5.8 mph - 0.00 in Snow Light Snow
2:53 PM 10.9 °F 1.4 °F 7.0 °F 84% 29.98 in 0.5 mi NNE 5.8 mph - 0.00 in Fog , Snow Snow
3:50 PM 10.4 °F 0.8 °F 6.8 °F 85% 29.91 in 1.2 mi North 5.8 mph - 0.00 in Snow Light Snow
3:53 PM 10.9 °F -0.8 °F 7.0 °F 84% 29.97 in 1.2 mi North 8.1 mph - 0.00 in Snow Light Snow
4:23 PM 10.9 °F -0.8 °F 6.1 °F 81% 29.90 in 2.5 mi North 8.1 mph - 0.00 in Snow Light Snow
4:29 PM 10.9 °F 1.4 °F 6.1 °F 81% 29.90 in 1.8 mi North 5.8 mph - 0.00 in Snow Light Snow
4:53 PM 10.0 °F -1.9 °F 5.0 °F 80% 29.95 in 2.0 mi North 8.1 mph - 0.00 in Snow Light Snow
5:04 PM 10.0 °F -0.9 °F 5.0 °F 80% 29.89 in 2.5 mi Variable 6.9 mph - 0.00 in Snow Light Snow
5:20 PM 9.0 °F -3.2 °F 5.0 °F 84% 29.89 in 2.0 mi North 8.1 mph - 0.00 in Snow Light Snow
5:29 PM 9.0 °F -2.2 °F 5.0 °F 84% 29.89 in 1.2 mi North 6.9 mph - 0.00 in Snow Light Snow
5:49 PM 8.6 °F -6.3 °F 3.2 °F 79% 29.89 in 2.5 mi North 11.5 mph - 0.00 in Snow Light Snow
5:53 PM 8.1 °F -7.0 °F 3.0 °F 80% 29.96 in 3.0 mi North 11.5 mph 19.6 mph 0.00 in Snow Light Snow
6:05 PM 8.1 °F -3.2 °F 3.0 °F 80% 29.90 in 2.0 mi Variable 6.9 mph - 0.00 in Snow Light Snow
6:13 PM 7.0 °F -6.6 °F 3.0 °F 84% 29.89 in 1.5 mi North 9.2 mph - 0.00 in Snow Light Snow
6:35 PM 7.0 °F -6.6 °F 1.9 °F 80% 29.89 in 1.2 mi North 9.2 mph - 0.00 in Snow Light Snow
6:53 PM 7.0 °F -5.7 °F 1.9 °F 80% 29.95 in 1.2 mi North 8.1 mph - 0.00 in Snow Light Snow
7:12 PM 6.1 °F -6.8 °F 1.0 °F 80% 29.89 in 1.5 mi North 8.1 mph - 0.00 in Snow Light Snow
7:32 PM 6.1 °F -8.7 °F 1.0 °F 80% 29.89 in 1.2 mi North 10.4 mph 19.6 mph 0.00 in Snow Light Snow
7:53 PM 6.1 °F -8.7 °F 1.0 °F 80% 29.96 in 1.2 mi North 10.4 mph 18.4 mph 0.00 in Snow Light Snow
8:14 PM 6.1 °F -4.3 °F 1.9 °F 83% 29.89 in 1.0 mi North 5.8 mph - 0.00 in Snow Light Snow
8:53 PM 6.1 °F -9.5 °F 1.0 °F 80% 29.96 in 1.0 mi North 11.5 mph 16.1 mph 0.00 in Snow Light Snow
9:36 PM 6.1 °F -5.6 °F 1.0 °F 80% 29.89 in 1.5 mi NNW 6.9 mph - 0.00 in Snow Light Snow
9:53 PM 6.1 °F -6.8 °F 1.0 °F 80% 29.96 in 1.5 mi North 8.1 mph - 0.00 in Snow Light Snow
10:28 PM 6.1 °F -4.3 °F 1.0 °F 80% 29.89 in 2.0 mi North 5.8 mph - 0.00 in Snow Light Snow
10:44 PM 5.0 °F -5.6 °F 1.0 °F 84% 29.90 in 1.5 mi North 5.8 mph - 0.00 in Snow Light Snow
10:53 PM 5.0 °F -5.6 °F 1.0 °F 84% 29.97 in 1.2 mi North 5.8 mph - 0.00 in Snow Light Snow
11:49 PM 5.0 °F -9.1 °F -0.4 °F 78% 29.90 in 1.0 mi North 9.2 mph - 0.00 in Snow Light Snow
11:53 PM 5.0 °F -9.1 °F -0.0 °F 80% 29.97 in 1.0 mi North 9.2 mph - 0.00 in Snow Light Snow